Location: Deurze
(52.9838°N, 6.6090°E)
Time: 19:43:50
(UTC+00:00)

Cosmos 2297 Rocket - Pass Details

Date: 11 March 2026
Orbit: 840 x 841 km, 71.0° (Epoch: 20 April)

Event Time Altitude Azimuth Distance (km) Brightness Sun altitude
Rises 19:59:40 0° 328° (NNW) 3,408 6.3 -22.6°
Reaches altitude 10° 20:02:27 10° 339° (NNW) 2,470 5.2 -23.0°
Maximum altitude 20:07:23 30° 40° (NE) 1,478 3.3 -23.7°
Enters shadow 20:08:05 29° 53° (NE) 1,504 3.3 -23.7°
